DW9711 Weather Reports


time (UTC)temp
C
wind
direction
speed
KPH
gust
KPH
rain 1hr
cm
rain 24hr
cm
rain mn
cm
humidity
%
barometer
mb
20260906022523 28 318 0.0 0.0 0.00 0.00 0.00 75 1008.9
20260906022023 28 318 0.0 0.0 0.00 0.00 0.00 77 1008.8
20260906021523 28 318 0.0 0.0 0.00 0.00 0.00 76 1008.7
20260906021022 28 318 0.0 0.0 0.00 0.00 0.00 74 1008.7
20260906020522 29 318 0.0 0.0 0.00 0.00 0.00 75 1008.7
20260906020022 29 318 0.0 0.0 0.00 0.00 0.00 76 1008.6
20260906015521 30 318 0.0 0.0 0.00 0.00 0.00 74 1008.5
20260906015022 30 318 0.0 0.0 0.00 0.00 0.00 74 1008.5
20260906014526 30 318 0.0 0.0 0.00 0.00 0.00 75 1008.4
20260906014023 30 318 0.0 0.0 0.00 0.00 0.00 74 1008.4
20260906013521 30 318 0.0 0.0 0.00 0.00 0.00 73 1008.4
20260906013021 30 318 0.0 0.0 0.00 0.00 0.00 72 1008.4
20260906012524 31 318 0.0 0.0 0.00 0.00 0.00 71 1008.4
20260906012020 31 318 0.0 0.0 0.00 0.00 0.00 69 1008.4
20260906011521 31 318 0.0 0.0 0.00 0.00 0.00 69 1008.3
20260906011023 31 318 0.0 0.0 0.00 0.00 0.00 67 1008.3
20260906010520 31 318 0.0 0.0 0.00 0.00 0.00 67 1008.4
20260906010021 31 318 0.0 0.0 0.00 0.00 0.00 66 1008.3
20260906005519 31 318 0.0 0.0 0.00 0.00 0.00 65 1008.2
20260906005020 31 318 0.0 0.0 0.00 0.00 0.00 66 1008.2
20260906004520 32 318 0.0 0.0 0.00 0.00 0.00 67 1008.1
20260906004023 32 318 0.0 0.0 0.00 0.00 0.00 65 1008.1
20260906003519 32 318 0.0 0.0 0.00 0.00 0.00 64 1008.1
20260906003019 32 318 0.0 0.0 0.00 0.00 0.00 63 1008.1
20260906002518 32 318 0.0 0.0 0.00 0.00 0.00 62 1008.2
20260906002019 33 318 0.0 0.0 0.00 0.00 0.00 60 1008.2
20260906001518 33 318 0.0 0.0 0.00 0.00 0.00 59 1008.3
20260906001018 33 318 0.0 0.0 0.00 0.00 0.00 58 1008.3
20260906000518 33 318 0.0 0.0 0.00 0.00 0.00 57 1008.2
20260906000018 33 318 0.0 0.0 0.00 0.00 0.00 57 1008.3
20260905235517 33 318 0.0 0.0 0.00 0.00 0.00 58 1008.4
20260905235018 33 318 0.0 0.0 0.00 0.00 0.00 60 1008.4
20260905234519 33 318 0.0 0.0 0.00 0.00 0.00 55 1008.4
20260905234017 34 318 0.0 0.0 0.00 0.00 0.00 55 1008.4
20260905233517 34 318 0.0 0.0 0.00 0.00 0.00 56 1008.4
20260905233017 34 318 0.0 0.0 0.00 0.00 0.00 54 1008.4
20260905232517 35 318 0.0 0.0 0.00 0.00 0.00 54 1008.3
20260905232017 35 318 0.0 0.0 0.00 0.00 0.00 54 1008.3
20260905231520 35 318 0.0 0.0 0.00 0.00 0.00 54 1008.3
20260905231017 35 318 0.0 0.0 0.00 0.00 0.00 52 1008.4
20260905230516 36 318 0.0 1.6 0.00 0.00 0.00 51 1008.4
20260905230016 36 318 0.0 3.2 0.00 0.00 0.00 51 1008.3
20260905225515 36 319 0.0 3.2 0.00 0.00 0.00 51 1008.3
20260905225019 36 319 0.0 3.2 0.00 0.00 0.00 51 1008.2
20260905224534 37 319 0.0 3.2 0.00 0.00 0.00 49 1008.3
20260905224015 37 318 0.0 4.8 0.00 0.00 0.00 48 1008.2
20260905223515 37 318 0.0 4.8 0.00 0.00 0.00 50 1008.2
20260905223020 37 318 0.0 3.2 0.00 0.00 0.00 47 1008.2
20260905222515 37 318 0.0 6.4 0.00 0.00 0.00 48 1008.2
20260905222014 37 320 0.0 3.2 0.00 0.00 0.00 47 1008.3
20260905221514 37 321 0.0 4.8 0.00 0.00 0.00 48 1008.3
20260905221014 37 320 0.0 8.0 0.00 0.00 0.00 49 1008.3
20260905220512 37 321 1.6 8.0 0.00 0.00 0.00 46 1008.5
20260905220012 37 321 3.2 8.0 0.00 0.00 0.00 45 1008.4
20260905215514 38 278 1.6 4.8 0.00 0.00 0.00 45 1008.4
20260905215014 38 277 0.0 4.8 0.00 0.00 0.00 44 1008.4
20260905214511 37 278 0.0 3.2 0.00 0.00 0.00 45 1008.4
20260905214011 38 278 0.0 3.2 0.00 0.00 0.00 44 1008.5
20260905213511 37 278 0.0 6.4 0.00 0.00 0.00 43 1008.5
20260905213011 37 278 0.0 6.4 0.00 0.00 0.00 44 1008.5
20260905212512 37 265 0.0 3.2 0.00 0.00 0.00 45 1008.5
20260905212011 37 265 0.0 3.2 0.00 0.00 0.00 44 1008.5
20260905211528 37 265 0.0 0.0 0.00 0.00 0.00 47 1008.6
20260905211009 37 265 0.0 1.6 0.00 0.00 0.00 47 1008.7
20260905210508 37 265 0.0 3.2 0.00 0.00 0.00 44 1008.7
20260905210016 37 265 0.0 3.2 0.00 0.00 0.00 42 1008.7
20260905205507 37 265 0.0 3.2 0.00 0.00 0.00 45 1008.7
20260905205007 37 265 0.0 6.4 0.00 0.00 0.00 43 1008.7
20260905204505 37 265 0.0 6.4 0.00 0.00 0.00 45 1008.7
20260905204005 37 248 0.0 4.8 0.00 0.00 0.00 46 1008.8
20260905203504 37 248 0.0 6.4 0.00 0.00 0.00 44 1009.0
20260905203004 37 322 0.0 6.4 0.00 0.00 0.00 46 1008.9
20260905202503 37 355 0.0 4.8 0.00 0.00 0.00 46 1009.0
20260905202003 37 355 0.0 8.0 0.00 0.00 0.00 47 1009.1
20260905201503 37 335 1.6 8.0 0.00 0.00 0.00 48 1009.0
20260905201002 37 317 1.6 8.0 0.00 0.00 0.00 47 1009.2
20260905200600 37 281 1.6 8.0 0.00 0.00 0.00 44 1009.2
20260905200104 37 295 1.6 8.0 0.00 0.00 0.00 47 1009.4
20260905195600 37 9 0.0 4.8 0.00 0.00 0.00 46 1009.4
20260905195057 37 9 0.0 3.2 0.00 0.00 0.00 48 1009.6
20260905194557 37 10 0.0 3.2 0.00 0.00 0.00 45 1009.7
20260905194056 37 92 0.0 1.6 0.00 0.00 0.00 47 1009.8
20260905193555 37 98 0.0 0.0 0.00 0.00 0.00 47 1009.9
20260905193055 37 98 0.0 8.0 0.00 0.00 0.00 45 1009.9
20260905192553 37 348 3.2 8.0 0.00 0.00 0.00 47 1010.0
20260905192053 37 53 0.0 6.4 0.00 0.00 0.00 48 1010.0
20260905191557 37 23 0.0 6.4 0.00 0.00 0.00 48 1010.1
20260905191051 37 340 0.0 4.8 0.00 0.00 0.00 48 1010.2
20260905190549 36 321 0.0 0.0 0.00 0.00 0.00 47 1010.3
20260905190049 36 321 0.0 0.0 0.00 0.00 0.00 47 1010.4
20260905185548 36 322 0.0 0.0 0.00 0.00 0.00 48 1010.4
20260905185051 36 351 0.0 0.0 0.00 0.00 0.00 49 1010.5
20260905184556 36 324 0.0 0.0 0.00 0.00 0.00 51 1010.4
20260905184047 36 323 0.0 0.0 0.00 0.00 0.00 50 1010.5
20260905183546 36 337 0.0 0.0 0.00 0.00 0.00 55 1010.5
20260905183045 36 341 0.0 3.2 0.00 0.00 0.00 53 1010.6
20260905182545 36 341 0.0 6.4 0.00 0.00 0.00 52 1010.6
20260905182045 36 342 0.0 6.4 0.00 0.00 0.00 52 1010.8
20260905181543 36 315 0.0 4.8 0.00 0.00 0.00 50 1010.8
20260905181041 36 315 0.0 4.8 0.00 0.00 0.00 49 1010.8
20260905180541 36 62 0.0 3.2 0.00 0.00 0.00 50 1010.9
20260905180043 36 67 0.0 4.8 0.00 0.00 0.00 51 1010.9
20260905175538 36 9 0.0 0.0 0.00 0.00 0.00 50 1011.0
20260905175038 36 9 0.0 1.6 0.00 0.00 0.00 52 1011.0
20260905174538 35 5 0.0 6.4 0.00 0.00 0.00 50 1011.1
20260905174035 35 307 1.6 6.4 0.00 0.00 0.00 50 1011.0
20260905173535 35 292 0.0 0.0 0.00 0.00 0.00 50 1011.1
20260905173043 35 292 0.0 1.6 0.00 0.00 0.00 50 1011.1
20260905172535 35 307 0.0 1.6 0.00 0.00 0.00 51 1011.2
20260905172032 35 312 0.0 0.0 0.00 0.00 0.00 53 1011.3
20260905171531 35 310 0.0 6.4 0.00 0.00 0.00 53 1011.3
20260905171030 35 308 0.0 8.0 0.00 0.00 0.00 50 1011.3
20260905170529 35 309 3.2 8.0 0.00 0.00 0.00 49 1011.3
20260905170029 35 312 0.0 0.0 0.00 0.00 0.00 55 1011.3
20260905165527 35 312 0.0 0.0 0.00 0.00 0.00 54 1011.4
20260905165028 35 315 0.0 1.6 0.00 0.00 0.00 55 1011.4
20260905164530 35 317 0.0 4.8 0.00 0.00 0.00 54 1011.5
20260905164025 35 318 1.6 4.8 0.00 0.00 0.00 56 1011.5
20260905163528 35 277 0.0 4.8 0.00 0.00 0.00 55 1011.6
20260905163026 34 236 0.0 6.4 0.00 0.00 0.00 55 1011.7
20260905162523 34 229 0.0 6.4 0.00 0.00 0.00 56 1011.8
20260905162022 34 211 0.0 6.4 0.00 0.00 0.00 56 1011.8
20260905161521 34 211 1.6 6.4 0.00 0.00 0.00 56 1011.9
20260905161019 33 300 0.0 8.0 0.00 0.00 0.00 59 1011.9
20260905160518 33 301 1.6 8.0 0.00 0.00 0.00 61 1011.9
20260905160017 33 317 0.0 4.8 0.00 0.00 0.00 60 1012.0
20260905155517 33 317 0.0 4.8 0.00 0.00 0.00 61 1012.0
20260905155015 33 316 0.0 3.2 0.00 0.00 0.00 61 1012.0
20260905154516 33 316 0.0 4.8 0.00 0.00 0.00 62 1012.0
20260905154018 33 316 0.0 4.8 0.00 0.00 0.00 62 1012.0
20260905153514 33 316 0.0 4.8 0.00 0.00 0.00 63 1012.0
20260905153017 33 316 0.0 3.2 0.00 0.00 0.00 63 1012.1
20260905152511 32 316 0.0 6.4 0.00 0.00 0.00 66 1012.1
20260905152011 32 107 0.0 3.2 0.00 0.00 0.00 63 1012.1
20260905151517 32 119 0.0 3.2 0.00 0.00 0.00 65 1012.1
20260905151006 32 111 0.0 3.2 0.00 0.00 0.00 64 1012.1
20260905150504 32 61 0.0 0.0 0.00 0.00 0.00 69 1012.1
20260905150003 32 61 0.0 0.0 0.00 0.00 0.00 68 1012.1
20260905145502 32 61 0.0 0.0 0.00 0.00 0.00 70 1012.1
20260905145102 32 61 0.0 0.0 0.00 0.00 0.00 70 1012.1
20260905144559 31 61 0.0 0.0 0.00 0.00 0.00 69 1012.1
20260905144057 31 61 0.0 0.0 0.00 0.00 0.00 70 1012.1
20260905054615 26 69 0.0 0.0 0.00 0.00 0.00 85 1011.2
20260905054040 26 69 0.0 0.0 0.00 0.00 0.00 84 1011.2
20260905053544 26 69 0.0 0.0 0.00 0.00 0.00 84 1011.2
20260905053043 26 69 0.0 0.0 0.00 0.00 0.00 84 1011.3
20260905052539 26 69 0.0 0.0 0.00 0.00 0.00 84 1011.3
20260905052038 26 69 0.0 0.0 0.00 0.00 0.00 83 1011.4
20260905051538 26 69 0.0 0.0 0.00 0.00 0.00 83 1011.3
20260905051037 26 69 0.0 0.0 0.00 0.00 0.00 83 1011.2
20260905050536 26 69 0.0 0.0 0.00 0.00 0.00 83 1011.3
20260905050034 26 69 0.0 0.0 0.00 0.00 0.00 83 1011.3
20260905045536 27 69 0.0 0.0 0.00 0.00 0.00 83 1011.2
20260905045034 27 69 0.0 0.0 0.00 0.00 0.00 83 1011.2
20260905023530 28 69 0.0 0.0 0.00 0.00 0.00 77 1011.5
20260905023031 28 69 0.0 0.0 0.00 0.00 0.00 76 1011.5